Content
SEND FEEDBACK

Daily
Averages
Monthly
Summary
United States of America

NAPERVILLE, ILLINOIS


Home > North America > United States > Illinois
Elevation: 687 feet     Latitude: 41 49N     Longitude: 088 04W

WEATHER
 
SELECT A DAY
Number of Records: 199,619;   Date Range: 1/1/95 - 10/20/14
 
SHARE

PRINT THIS DATA

[ ← Previous Day ]
WEATHER ALMANAC - MAY 9, 2013
[ Next Day → ]
[ °C ]   °F
Weather ElementAverageHighLow
Temperature59.1 °F73 °F (12:51 pm)46 °F (11:51 pm)
Dewpoint49.6 °F59 °F (3:51 pm)44.1 °F (1:51 am)
Humidity72.8 %97 % (10:51 pm)48 % (12:51 pm)
Barometer29.90 in29.95 in (10:51 am)29.84 in (6:51 pm)
Wind Speed6.5 mph16.1 mph (7:31 pm)
Wind Gust24.2 mph (3:51 pm)
Weather ElementAverage
Visibility9.6 mi
Wind DirectionENE (73.7 °)

Weather ElementTotal
Precipitation0.45 in
Heating Degree Days5.5 (Base 65)
Growing Degree Days9.5 (Base 50)
Averaged from 27 records on May 9, 2013
WEATHER CONDITIONS BREAKOUT
WIND DIRECTION BREAKOUT
WEATHER BY HOUR - MAY 9, 2013
[ °C ]   °F
Local TimeTemperatureDewpointHumidityBarometerVisibilityWind DirectionWind SpeedGust SpeedPrecipitationEventsConditions
1:51 AM57.9 °F44.1 °F60 %29.94 in10.0 miCalmPartly Cloudy
2:51 AM57.0 °F45.0 °F64 %29.94 in10.0 miCalmMostly Cloudy
3:51 AM55.0 °F46.0 °F72 %29.94 in10.0 miCalmMostly Cloudy
4:51 AM54.0 °F45.0 °F72 %29.93 in10.0 miSE (140°)3.5 mphMostly Cloudy
5:51 AM55.0 °F45.0 °F69 %29.93 in10.0 miCalmMostly Cloudy
6:51 AM60.1 °F45.0 °F57 %29.94 in10.0 miCalmOvercast
7:51 AM61.0 °F48.0 °F62 %29.94 in10.0 miVariable3.5 mphOvercast
8:51 AM64.0 °F48.0 °F56 %29.94 in10.0 miNE (40°)3.5 mphOvercast
9:51 AM66.0 °F48.9 °F54 %29.94 in10.0 miENE (60°)5.8 mphOvercast
10:51 AM68.0 °F51.1 °F55 %29.95 in10.0 miCalmOvercast
11:51 AM71.1 °F51.1 °F49 %29.93 in10.0 miSSW (200°)3.5 mphOvercast
12:51 PM73.0 °F52.0 °F48 %29.91 in10.0 miSE (140°)3.5 mphOvercast
1:51 PM72.0 °F55.0 °F55 %29.91 in10.0 miSouth (180°)3.5 mph0.00 inRainLight Rain
2:51 PM73.0 °F53.1 °F49 %29.89 in10.0 miSouth (190°)11.5 mph0.00 inOvercast
3:51 PM66.0 °F59.0 °F78 %29.90 in10.0 miSW (230°)12.7 mph24.2 mph0.02 inRainLight Rain
4:51 PM66.9 °F57.9 °F73 %29.88 in10.0 miSSW (210°)9.2 mph0.00 inOvercast
5:51 PM66.9 °F57.0 °F70 %29.87 in10.0 miSouth (190°)12.7 mphOvercast
6:51 PM64.9 °F59.0 °F81 %29.84 in10.0 miSSE (150°)8.1 mph0.01 inRainLight Rain
7:31 PM55.4 °F51.8 °F88 %29.86 in10.0 miNNE (30°)16.1 mph0.00 inRainLight Rain
7:51 PM53.1 °F51.1 °F93 %29.87 in9.0 miNNE (30°)11.5 mph0.01 inRainLight Rain
8:51 PM50.0 °F48.9 °F96 %29.88 in7.0 miNNE (20°)9.2 mph21.9 mph0.08 inRainRain
9:25 PM48.2 °F46.4 °F93 %29.88 in9.0 miNNE (30°)9.2 mph20.7 mph0.04 inRainRain
9:41 PM48.2 °F46.4 °F93 %29.88 in8.0 miNNE (20°)8.1 mph0.08 inRainRain
9:51 PM48.9 °F46.9 °F93 %29.88 in9.0 miNNE (30°)10.4 mph0.09 inRainRain
10:12 PM48.2 °F46.4 °F93 %29.88 in8.0 miNE (40°)10.4 mph0.02 inRainRain
10:51 PM46.9 °F46.0 °F97 %29.86 in8.0 miNE (40°)9.2 mph18.4 mph0.06 inRainLight Rain
11:51 PM46.0 °F45.0 °F96 %29.84 in10.0 miNNE (20°)11.5 mph0.04 inRainLight Rain
Hourly data recorded from KORD, located miles away from Naperville, Illinois







STORIES FROM OUR PARTNERS